Temp
-14 -13 -13 -13 -12 -12 -12 -12 -12 -12 -12 -12 -12 -12 -12 -12 -11 -12 -12 -12 -12 -12 -13 -12 -13 -13 -13 -13 -13 -13 -13 -13 -12 -12 -12 -12 -12 -12 -12 -12 -11 -12 -12 -12 -12 -11 -11
-14 -14 -13 -13 -13 -13 -14 -13 -13 -13 -13 -13 -13 -12 -12 -12 -12 -12 -13 -13 -13 -13 -13 -13 -13 -13 -14 -13 -14 -14 -14 -13 -13 -13 -13 -13 -12 -12 -12 -12 -12 -12 -12 -12 -12 -12 -11
-15 -15 -14 -14 -14 -14 -14 -14 -14 -14 -14 -14 -14 -14 -14 -14 -14 -14 -14 -14 -14 -14 -14 -14 -14 -14 -14 -14 -14 -14 -15 -14 -14 -14 -13 -13 -13 -12 -12 -12 -12 -12 -12 -12 -12 -12 -11
-16 -15 -15 -15 -15 -15 -15 -15 -15 -15 -15 -15 -15 -15 -15 -15 -15 -15 -15 -15 -14 -14 -14 -14 -14 -14 -13 -14 -14 -14 -15 -15 -14 -14 -14 -13 -13 -13 -12 -12 -12 -12 -12 -12 -12 -12 -12
-16 -16 -16 -16 -16 -16 -16 -16 -16 -16 -16 -16 -16 -16 -16 -16 -16 -16 -16 -16 -15 -15 -14 -14 -14 -14 -14 -14 -14 -14 -14 -15 -15 -14 -14 -14 -14 -13 -13 -12 -12 -12 -12 -13 -13 -12 -11
-18 -17 -17 -17 -17 -17 -17 -17 -17 -17 -17 -17 -17 -17 -17 -17 -17 -17 -17 -17 -17 -16 -16 -15 -14 -15 -15 -14 -14 -14 -14 -15 -15 -14 -14 -14 -14 -14 -13 -12 -11 -12 -13 -13 -13 -13 -12
-18 -18 -18 -18 -18 -18 -18 -18 -18 -18 -18 -18 -18 -18 -18 -17 -17 -17 -17 -17 -17 -16 -17 -17 -16 -16 -15 -14 -14 -14 -14 -15 -15 -14 -14 -14 -14 -13 -14 -13 -13 -13 -13 -13 -13 -13 -13
-19 -19 -19 -19 -19 -19 -19 -19 -19 -19 -19 -18 -18 -18 -18 -18 -18 -17 -17 -17 -17 -16 -17 -18 -18 -17 -17 -14 -14 -14 -15 -15 -15 -14 -15 -14 -13 -14 -14 -13 -13 -13 -13 -13 -13 -13 -14
-20 -20 -20 -20 -20 -20 -19 -19 -19 -19 -19 -19 -19 -18 -18 -18 -18 -18 -17 -17 -17 -17 -17 -17 -18 -18 -17 -15 -15 -15 -15 -15 -15 -15 -15 -14 -14 -15 -14 -13 -13 -13 -13 -13 -13 -13 -13
-21 -21 -20 -20 -20 -20 -20 -20 -20 -20 -20 -19 -19 -19 -18 -18 -18 -18 -18 -18 -17 -17 -17 -17 -17 -17 -17 -17 -15 -16 -15 -15 -15 -15 -15 -14 -14 -14 -14 -13 -13 -13 -14 -13 -13 -13 -13
-21 -21 -21 -21 -21 -21 -20 -20 -20 -20 -20 -19 -19 -19 -19 -19 -18 -18 -18 -18 -17 -17 -17 -17 -17 -17 -17 -17 -17 -17 -15 -15 -15 -15 -15 -14 -15 -15 -14 -13 -14 -13 -14 -13 -13 -13 -12
-22 -22 -21 -21 -21 -21 -21 -21 -20 -20 -20 -20 -19 -19 -18 -18 -18 -18 -18 -18 -17 -17 -17 -17 -17 -18 -18 -19 -18 -17 -16 -15 -15 -15 -14 -14 -14 -14 -14 -14 -14 -14 -14 -13 -13 -13 -13
-23 -22 -22 -22 -21 -21 -21 -21 -21 -21 -21 -20 -19 -19 -19 -19 -19 -18 -18 -18 -18 -18 -17 -17 -18 -17 -18 -19 -19 -19 -17 -16 -15 -15 -14 -14 -14 -14 -14 -14 -14 -14 -14 -14 -13 -13 -12
-23 -23 -23 -23 -22 -22 -22 -22 -22 -22 -21 -21 -20 -20 -19 -19 -19 -19 -18 -18 -18 -17 -18 -18 -18 -18 -18 -18 -20 -20 -19 -18 -16 -15 -15 -15 -14 -14 -14 -14 -14 -14 -14 -14 -14 -14 -13
-24 -23 -23 -23 -23 -23 -23 -23 -22 -22 -22 -22 -21 -20 -20 -21 -20 -20 -19 -19 -18 -17 -18 -18 -18 -18 -18 -19 -20 -20 -20 -19 -19 -17 -16 -15 -15 -15 -15 -15 -14 -14 -14 -14 -14 -13 -13
-25 -24 -24 -24 -24 -23 -23 -23 -23 -23 -23 -23 -22 -21 -21 -21 -21 -20 -20 -19 -19 -18 -18 -19 -19 -18 -19 -19 -19 -20 -20 -19 -18 -18 -19 -17 -16 -16 -16 -16 -15 -14 -14 -14 -14 -13 -14
-26 -25 -25 -25 -24 -24 -24 -24 -24 -24 -23 -23 -23 -22 -22 -22 -22 -21 -20 -20 -20 -20 -19 -19 -19 -19 -19 -19 -19 -19 -19 -19 -19 -18 -17 -18 -18 -18 -17 -16 -16 -16 -15 -15 -15 -14 -14
-28 -27 -26 -25 -25 -25 -24 -24 -24 -24 -24 -23 -23 -23 -23 -23 -22 -21 -21 -21 -21 -21 -21 -21 -20 -20 -20 -19 -20 -19 -19 -18 -18 -19 -18 -17 -18 -18 -18 -16 -16 -15 -15 -15 -15 -15 -15
-30 -28 -27 -26 -25 -25 -24 -25 -24 -24 -24 -24 -24 -23 -23 -23 -23 -22 -22 -22 -21 -22 -22 -21 -20 -21 -20 -20 -20 -20 -19 -19 -18 -18 -18 -18 -17 -18 -17 -17 -17 -16 -16 -16 -15 -15 -14
-29 -28 -27 -26 -25 -25 -25 -25 -25 -24 -24 -24 -24 -24 -23 -23 -23 -23 -23 -22 -22 -23 -23 -22 -22 -21 -21 -21 -20 -20 -20 -19 -18 -18 -18 -18 -17 -17 -18 -17 -17 -16 -16 -16 -15 -15 -15
-28 -27 -27 -26 -26 -25 -25 -25 -25 -25 -25 -25 -24 -24 -24 -24 -24 -25 -25 -24 -24 -24 -24 -24 -22 -22 -22 -21 -20 -19 -20 -19 -18 -18 -18 -18 -18 -17 -17 -17 -17 -17 -17 -16 -16 -16 -16
-27 -27 -26 -26 -26 -25 -26 -26 -26 -26 -26 -26 -25 -25 -25 -26 -26 -26 -26 -26 -26 -25 -25 -24 -24 -24 -23 -22 -21 -21 -19 -18 -18 -18 -18 -18 -18 -18 -17 -17 -17 -17 -17 -17 -17 -17 -16
-27 -26 -26 -26 -26 -26 -26 -26 -26 -26 -26 -26 -26 -26 -26 -26 -27 -27 -27 -26 -26 -26 -26 -26 -26 -25 -24 -23 -22 -21 -20 -20 -19 -20 -19 -19 -19 -19 -20 -19 -18 -16 -17 -17 -17 -17 -17
-27 -27 -27 -26 -26 -25 -26 -26 -26 -26 -26 -26 -27 -27 -27 -27 -27 -27 -27 -26 -26 -26 -25 -25 -25 -25 -25 -24 -23 -22 -21 -20 -19 -20 -21 -20 -20 -20 -20 -20 -19 -18 -18 -18 -18 -18 -18
-27 -27 -27 -27 -27 -27 -26 -25 -25 -25 -26 -26 -27 -27 -27 -27 -27 -27 -27 -27 -26 -26 -25 -25 -25 -25 -24 -24 -24 -23 -22 -22 -21 -21 -20 -21 -21 -20 -21 -20 -19 -19 -19 -19 -19 -19 -18
-26 -27 -27 -27 -27 -27 -27 -26 -25 -25 -26 -26 -26 -27 -27 -27 -27 -27 -27 -27 -26 -26 -25 -25 -25 -24 -24 -24 -24 -23 -23 -22 -22 -21 -21 -22 -21 -21 -21 -20 -19 -19 -19 -19 -20 -20 -19
-26 -26 -26 -26 -27 -27 -26 -27 -26 -25 -25 -26 -26 -27 -27 -27 -27 -27 -26 -26 -26 -25 -25 -25 -25 -24 -24 -24 -23 -23 -23 -22 -22 -22 -22 -22 -22 -21 -21 -21 -20 -20 -21 -20 -19 -20 -19
-26 -26 -26 -26 -26 -26 -26 -26 -26 -25 -26 -26 -26 -27 -27 -27 -27 -27 -26 -26 -25 -25 -25 -25 -25 -25 -24 -23 -23 -22 -22 -22 -23 -23 -22 -22 -22 -22 -21 -21 -20 -21 -21 -20 -20 -20 -20
-27 -27 -27 -28 -27 -26 -26 -26 -26 -25 -25 -26 -26 -27 -28 -27 -27 -26 -26 -25 -25 -25 -25 -25 -25 -24 -24 -23 -22 -22 -22 -23 -23 -22 -22 -22 -22 -21 -21 -21 -21 -21 -20 -21 -20 -20 -20
Height
5731 5731 5731 5731 5731 5731 5731 5730 5730 5729 5729 5729 5727 5728 5728 5728 5728 5728 5728 5729 5730 5730 5731 5731 5735 5739 5741 5746 5749 5749 5754 5757 5759 5763 5766 5767 5769 5770 5771 5773 5775 5777 5777 5777 5775 5774 5775
5718 5718 5717 5716 5717 5717 5717 5717 5717 5716 5715 5716 5716 5714 5716 5715 5715 5714 5714 5715 5716 5716 5718 5718 5722 5723 5728 5734 5734 5735 5742 5747 5749 5752 5757 5759 5761 5761 5764 5767 5769 5771 5771 5771 5771 5768 5770
5702 5703 5703 5703 5704 5703 5703 5703 5703 5702 5703 5704 5703 5703 5703 5703 5703 5701 5702 5702 5701 5703 5703 5703 5708 5709 5715 5726 5720 5723 5729 5734 5739 5742 5747 5750 5752 5754 5758 5760 5762 5764 5765 5765 5765 5763 5766
5688 5689 5689 5690 5690 5690 5691 5689 5690 5689 5691 5691 5691 5692 5692 5693 5693 5692 5691 5691 5691 5691 5691 5692 5694 5694 5702 5707 5708 5711 5712 5720 5727 5731 5737 5740 5743 5747 5752 5754 5756 5758 5760 5761 5759 5757 5760
5675 5675 5675 5676 5677 5677 5678 5678 5678 5678 5679 5681 5682 5682 5681 5682 5682 5682 5681 5678 5680 5682 5679 5679 5681 5681 5689 5692 5693 5694 5700 5710 5716 5720 5725 5730 5735 5740 5743 5746 5749 5753 5756 5756 5752 5751 5753
5660 5662 5662 5663 5663 5664 5665 5665 5667 5668 5669 5670 5670 5671 5672 5672 5673 5674 5674 5673 5672 5671 5670 5669 5670 5671 5674 5674 5678 5684 5690 5696 5703 5709 5713 5719 5724 5729 5734 5739 5745 5747 5748 5748 5748 5745 5747
5646 5648 5648 5650 5650 5651 5652 5654 5656 5658 5659 5659 5660 5661 5662 5663 5663 5664 5668 5667 5667 5665 5664 5661 5659 5660 5658 5661 5669 5673 5677 5683 5691 5696 5702 5711 5714 5718 5732 5734 5735 5735 5740 5743 5743 5740 5742
5630 5631 5633 5635 5637 5638 5641 5643 5643 5646 5647 5649 5651 5652 5652 5655 5654 5657 5656 5658 5659 5658 5660 5655 5651 5650 5648 5649 5658 5660 5665 5673 5680 5688 5694 5698 5701 5716 5719 5722 5726 5727 5733 5738 5737 5733 5733
5615 5616 5618 5621 5623 5625 5627 5631 5631 5633 5635 5639 5639 5641 5645 5647 5646 5647 5648 5650 5651 5651 5649 5655 5646 5640 5641 5640 5645 5648 5654 5661 5669 5676 5683 5689 5696 5706 5709 5715 5716 5721 5725 5731 5730 5724 5726
5600 5602 5604 5607 5609 5612 5615 5617 5621 5621 5622 5625 5628 5632 5636 5637 5638 5638 5641 5641 5642 5643 5640 5644 5642 5637 5633 5632 5636 5635 5643 5651 5657 5666 5673 5678 5685 5693 5700 5705 5709 5712 5720 5722 5722 5718 5721
5583 5587 5589 5592 5595 5597 5600 5602 5604 5608 5611 5613 5618 5622 5625 5626 5626 5629 5633 5633 5634 5636 5633 5636 5634 5631 5628 5627 5629 5629 5634 5639 5648 5655 5664 5670 5679 5684 5691 5698 5702 5708 5709 5713 5710 5712 5713
5565 5569 5574 5576 5580 5583 5586 5588 5591 5595 5598 5602 5608 5609 5613 5616 5617 5620 5623 5624 5626 5629 5627 5628 5628 5627 5624 5623 5622 5623 5624 5630 5639 5643 5652 5659 5665 5671 5681 5687 5690 5695 5699 5702 5704 5707 5705
5548 5552 5556 5561 5564 5568 5572 5575 5579 5582 5586 5590 5594 5597 5600 5603 5606 5610 5612 5614 5616 5618 5621 5621 5623 5623 5622 5621 5621 5618 5617 5621 5629 5634 5643 5650 5656 5662 5668 5675 5681 5685 5692 5695 5699 5699 5701
5527 5533 5538 5544 5548 5552 5557 5562 5566 5569 5573 5576 5581 5584 5587 5591 5593 5598 5601 5605 5606 5608 5613 5614 5615 5617 5618 5617 5617 5618 5615 5616 5619 5626 5631 5638 5646 5653 5660 5666 5673 5678 5684 5688 5689 5692 5696
5506 5513 5519 5526 5532 5537 5543 5547 5552 5555 5559 5562 5567 5571 5575 5578 5581 5585 5588 5591 5596 5600 5602 5606 5608 5610 5612 5614 5614 5614 5615 5614 5616 5619 5626 5629 5636 5643 5648 5655 5660 5667 5671 5681 5682 5682 5684
5482 5492 5500 5508 5515 5522 5528 5532 5537 5541 5544 5548 5553 5558 5564 5566 5569 5572 5574 5579 5585 5589 5592 5597 5599 5602 5605 5608 5610 5611 5612 5613 5614 5616 5619 5624 5630 5634 5640 5646 5652 5656 5663 5668 5670 5672 5675
5461 5471 5481 5491 5499 5505 5513 5518 5523 5526 5529 5534 5540 5545 5552 5553 5556 5558 5560 5567 5573 5578 5579 5586 5590 5593 5597 5600 5603 5604 5608 5611 5612 5614 5616 5620 5626 5631 5633 5639 5647 5652 5654 5661 5664 5666 5670
5443 5453 5464 5475 5484 5491 5498 5503 5507 5511 5514 5519 5525 5532 5540 5538 5542 5545 5547 5556 5562 5568 5568 5573 5580 5584 5589 5591 5594 5598 5601 5604 5608 5611 5614 5618 5622 5624 5629 5633 5639 5643 5647 5651 5653 5658 5661
5433 5441 5451 5461 5471 5478 5484 5489 5492 5496 5499 5503 5510 5518 5525 5523 5526 5532 5536 5542 5548 5557 5558 5561 5568 5574 5579 5583 5586 5590 5593 5597 5601 5606 5609 5614 5619 5622 5626 5630 5633 5636 5640 5644 5648 5651 5652
5427 5433 5441 5450 5457 5464 5469 5474 5477 5481 5484 5488 5494 5502 5510 5509 5514 5520 5524 5529 5534 5543 5546 5550 5557 5562 5569 5573 5576 5581 5586 5590 5594 5599 5602 5607 5612 5618 5622 5624 5628 5632 5635 5639 5643 5645 5648
5424 5429 5435 5441 5447 5452 5456 5460 5464 5468 5469 5471 5479 5490 5494 5495 5501 5507 5509 5516 5522 5531 5535 5539 5546 5552 5557 5563 5568 5572 5577 5582 5587 5591 5595 5599 5603 5609 5614 5618 5622 5625 5629 5632 5636 5638 5639
5420 5424 5428 5432 5436 5440 5443 5447 5450 5454 5454 5459 5467 5475 5478 5485 5488 5494 5500 5505 5513 5520 5526 5531 5536 5540 5545 5554 5559 5564 5567 5572 5578 5583 5587 5591 5596 5600 5605 5610 5614 5618 5622 5624 5627 5630 5631
5414 5416 5419 5422 5426 5429 5433 5436 5440 5442 5446 5450 5456 5459 5463 5473 5479 5485 5493 5502 5507 5513 5518 5523 5530 5533 5538 5544 5549 5556 5560 5565 5569 5574 5579 5583 5587 5592 5596 5602 5605 5610 5615 5619 5621 5622 5623
5409 5411 5412 5413 5415 5419 5422 5426 5430 5432 5436 5440 5445 5447 5452 5463 5468 5478 5486 5493 5498 5506 5512 5518 5524 5528 5533 5536 5541 5547 5552 5555 5558 5565 5569 5573 5578 5583 5587 5592 5596 5602 5604 5609 5611 5614 5614
5406 5406 5407 5407 5408 5409 5411 5415 5419 5423 5426 5429 5435 5440 5445 5452 5461 5468 5477 5486 5492 5499 5505 5512 5518 5522 5526 5531 5536 5540 5544 5548 5552 5556 5560 5564 5567 5572 5578 5581 5588 5590 5593 5598 5602 5604 5605
5400 5399 5398 5399 5400 5401 5403 5406 5410 5413 5417 5421 5426 5433 5437 5444 5453 5461 5469 5479 5487 5494 5500 5506 5512 5517 5521 5524 5529 5533 5538 5541 5545 5549 5553 5558 5560 5565 5569 5573 5579 5579 5580 5584 5590 5593 5594
5393 5392 5391 5390 5391 5392 5395 5397 5401 5405 5409 5414 5420 5425 5429 5435 5446 5454 5464 5474 5481 5489 5495 5500 5507 5512 5516 5520 5524 5529 5532 5536 5540 5543 5547 5550 5554 5559 5563 5566 5570 5570 5570 5575 5578 5579 5580
5384 5382 5381 5380 5381 5383 5385 5389 5393 5398 5402 5406 5414 5418 5424 5430 5442 5449 5458 5468 5477 5484 5491 5496 5501 5506 5511 5516 5520 5522 5525 5530 5534 5538 5541 5545 5549 5552 5557 5560 5563 5564 5565 5568 5568 5569 5572
5373 5370 5368 5366 5367 5371 5375 5380 5385 5391 5397 5402 5407 5413 5419 5425 5437 5445 5455 5464 5473 5480 5485 5490 5496 5500 5505 5510 5514 5517 5521 5525 5529 5532 5536 5541 5545 5548 5553 5555 5556 5557 5560 5562 5563 5565 5567
Wind_Speed
61 57 56 54 53 52 53 52 52 52 53 53 51 54 55 56 58 59 61 63 63 62 60 60 58 53 51 51 46 50 46 43 41 39 38 38 36 33 31 27 27 21 24 20 24 23 22
63 60 59 56 53 52 52 53 54 53 53 55 55 54 57 58 59 58 58 58 58 56 55 54 56 53 54 53 51 51 48 44 41 40 39 39 38 35 32 27 27 24 24 19 21 25 20
58 59 58 55 54 52 52 52 52 52 53 54 53 50 51 51 52 51 51 50 51 51 53 52 56 54 55 52 54 54 49 46 44 40 39 38 40 37 31 29 26 25 23 22 20 25 21
54 56 54 53 54 52 53 52 52 48 48 46 45 43 41 42 43 44 44 44 47 47 51 52 50 53 54 54 54 54 51 51 48 42 41 41 40 36 30 29 26 26 24 22 21 27 24
52 52 53 54 54 53 53 51 48 45 45 45 42 39 36 37 35 35 37 38 44 45 45 48 48 51 51 53 58 56 54 48 50 49 45 42 41 37 33 30 31 27 23 23 26 30 28
54 54 55 56 53 53 50 47 47 45 42 41 38 35 34 33 30 32 33 34 35 39 39 40 44 46 50 53 56 53 54 55 52 49 49 46 44 40 36 30 27 28 25 28 28 33 30
57 57 55 55 53 49 47 45 45 42 40 38 35 35 33 32 33 34 32 33 33 30 28 30 34 38 45 51 51 48 48 55 55 52 51 46 48 47 29 30 31 35 29 30 30 33 29
58 56 55 53 51 49 48 47 45 43 41 38 38 36 34 34 34 35 32 31 31 32 26 27 29 28 36 48 50 46 43 51 54 54 48 49 55 39 33 36 36 37 32 28 32 35 33
57 55 54 53 51 50 49 48 46 44 41 42 40 38 39 38 37 36 37 35 32 32 34 25 30 32 32 42 37 42 46 46 52 50 51 51 50 39 38 37 41 38 34 28 34 38 36
55 55 54 53 53 53 51 49 48 45 43 43 42 43 43 41 40 38 37 34 37 36 37 30 25 28 31 30 32 34 40 47 52 53 53 49 57 48 41 40 42 40 32 34 37 41 38
57 56 54 54 52 51 50 49 47 46 45 43 43 43 42 42 42 41 39 39 39 37 40 31 25 24 25 26 25 31 30 43 45 49 53 51 49 49 44 38 39 37 38 37 41 41 41
59 57 56 54 52 50 49 47 47 47 47 46 47 46 44 44 45 45 43 41 40 41 40 36 29 25 27 19 20 24 31 35 46 53 52 52 52 52 48 42 41 41 40 40 39 39 44
62 59 58 56 54 52 51 50 49 49 48 48 48 47 44 46 46 45 43 41 43 43 39 36 30 24 25 25 18 16 22 29 38 46 46 50 50 52 51 45 43 45 42 41 39 41 43
64 62 61 58 56 54 53 51 51 49 49 48 50 47 46 47 47 46 45 44 45 44 41 38 34 28 25 23 18 14 15 20 27 36 38 37 40 43 47 48 43 43 42 43 43 42 41
65 63 62 60 58 57 55 53 53 51 50 50 50 49 48 48 49 49 48 46 45 44 43 39 36 32 26 24 20 21 16 17 17 19 31 37 35 30 35 45 45 42 46 42 44 47 46
65 65 62 60 59 58 56 55 53 52 51 51 51 51 49 50 51 52 54 51 46 45 45 39 39 34 29 25 26 21 24 17 18 14 16 25 24 27 26 35 38 43 42 42 43 44 45
60 60 61 59 58 58 57 55 53 52 52 52 52 52 49 52 53 55 58 53 47 43 46 41 39 35 31 27 28 32 29 25 23 21 22 23 24 30 29 30 30 35 40 39 41 43 40
44 51 54 56 54 54 54 53 52 52 53 53 52 53 50 53 55 55 55 52 48 39 45 43 41 37 34 32 31 30 31 31 29 29 24 24 22 26 30 30 30 34 36 36 40 38 39
34 37 43 45 46 47 49 52 52 51 52 54 54 53 52 55 57 55 55 53 51 43 44 45 42 40 37 36 37 35 35 35 33 32 30 25 24 23 25 28 29 28 30 33 34 36 40
29 32 37 41 42 45 47 49 51 52 53 54 56 56 55 58 58 55 54 54 52 42 44 46 42 41 37 38 40 39 40 38 39 37 35 33 34 30 25 30 31 31 31 30 30 32 34
20 26 32 36 38 41 43 45 47 49 51 55 56 54 52 53 50 47 48 48 45 41 42 42 42 41 37 38 40 41 41 42 42 40 41 40 39 38 38 36 34 33 32 33 35 36 38
19 23 27 31 35 37 39 41 44 45 46 50 50 47 45 40 37 38 37 40 36 35 37 37 35 34 36 36 40 41 42 42 42 41 42 41 39 39 39 40 41 41 40 40 39 39 40
18 20 24 27 30 33 34 36 37 39 38 33 31 41 44 38 37 36 29 32 31 31 33 29 25 27 29 30 37 38 40 39 41 40 40 41 41 39 37 37 38 42 41 40 40 40 40
10 11 12 18 27 33 35 37 40 41 39 38 35 30 38 36 39 34 40 35 33 35 30 27 24 24 25 28 30 33 37 39 40 39 41 42 41 42 40 38 41 40 39 35 38 36 39
16 18 18 21 20 20 27 34 36 37 38 38 36 31 29 36 35 35 37 35 34 38 30 25 21 23 24 25 25 25 26 30 33 34 37 38 41 41 41 41 39 41 39 37 39 38 39
20 22 25 27 26 27 23 26 32 36 35 35 35 34 30 33 35 34 38 34 34 33 27 21 17 22 23 25 25 23 20 22 24 27 29 32 36 37 36 35 34 35 35 37 36 37 42
21 23 23 24 26 28 30 26 27 34 33 32 30 31 33 30 34 36 36 36 35 30 25 20 17 20 25 24 24 22 22 22 23 23 25 27 29 28 26 25 23 27 27 28 33 37 43
29 29 31 32 29 27 27 28 26 32 31 29 26 27 30 28 32 34 37 37 32 26 22 20 17 20 25 25 24 23 26 21 19 17 19 22 23 25 24 23 23 21 22 23 23 23 28
30 28 27 30 34 32 30 29 27 32 29 27 22 23 28 30 31 36 37 32 25 22 21 18 18 19 25 26 25 27 25 23 21 21 21 19 18 19 20 19 18 18 16 11 11 12 13
Wind_Direction
278 275 274 273 271 270 268 269 268 267 267 265 264 266 267 267 268 268 269 270 271 270 271 268 266 262 256 252 250 250 246 245 245 246 248 249 251 248 251 251 251 251 257 271 264 266 270
273 273 273 271 268 267 266 267 267 267 267 269 269 270 272 272 271 273 274 272 271 269 269 268 263 256 252 248 247 245 244 242 240 241 242 245 246 243 248 247 250 247 251 264 260 267 273
266 269 269 268 267 266 267 269 270 270 270 270 272 276 276 275 276 276 275 274 271 269 268 268 263 256 252 248 245 243 239 237 235 236 240 241 242 240 243 246 245 248 249 255 260 264 275
262 264 266 266 267 268 269 270 270 271 273 274 274 275 276 276 277 276 277 276 273 272 267 267 266 257 253 246 247 244 234 232 229 230 236 237 238 240 242 243 240 246 249 257 261 265 269
263 264 264 265 265 267 269 270 270 271 271 272 272 272 273 277 279 279 278 280 280 278 272 270 264 258 252 248 244 247 236 231 230 225 230 232 235 238 238 239 241 245 252 257 261 259 266
263 263 263 264 264 265 266 268 269 267 266 265 266 266 267 269 272 274 278 281 285 280 283 273 266 258 254 247 243 245 241 231 229 225 226 228 233 236 235 238 243 249 248 250 253 262 271
264 262 261 263 264 265 264 262 261 261 261 262 260 259 261 267 269 272 274 279 280 283 290 292 276 256 255 251 244 244 241 232 228 227 225 230 234 234 240 244 240 244 245 249 254 261 267
263 263 262 261 260 260 257 255 255 257 258 260 257 258 258 267 267 269 272 278 281 284 290 299 293 276 264 253 248 247 236 230 224 228 229 230 233 234 237 235 241 242 244 248 255 262 265
261 260 259 259 258 255 252 252 254 255 257 257 258 260 259 263 263 269 270 273 282 281 286 281 285 296 271 257 255 246 230 232 221 224 228 233 240 237 236 236 239 241 243 242 249 258 260
261 257 256 255 255 254 252 251 254 256 257 260 259 259 259 263 265 268 271 275 275 280 284 289 283 282 285 267 262 250 230 226 221 222 227 232 235 233 232 233 235 239 243 242 248 253 259
260 259 256 255 254 254 254 255 257 258 259 259 259 259 260 262 266 268 268 268 272 280 281 292 295 288 296 264 262 252 230 223 220 221 226 238 237 230 233 232 233 239 239 241 245 250 257
257 256 256 255 254 254 255 256 257 258 260 260 260 261 263 265 267 266 266 265 268 271 276 281 288 284 289 287 280 255 237 226 225 228 226 232 230 227 229 223 224 230 235 239 245 252 257
257 255 254 253 254 254 255 256 257 258 260 261 262 263 265 265 266 265 265 265 265 265 270 275 278 277 272 269 286 277 237 226 221 223 225 224 228 230 224 220 223 227 231 240 245 249 257
254 254 253 253 253 253 254 255 256 258 260 261 263 265 266 267 268 267 264 263 264 266 263 265 270 272 269 268 261 282 258 231 227 218 220 221 226 233 231 223 221 224 229 235 241 249 252
251 248 249 250 251 251 251 252 254 256 258 261 263 264 265 268 269 269 269 264 262 261 261 260 262 264 263 253 261 257 259 254 241 224 223 218 218 221 224 224 219 223 230 234 239 243 249
253 249 245 246 247 248 248 250 253 256 258 260 262 264 266 266 267 267 266 266 264 260 260 255 256 254 256 248 241 245 251 258 245 234 235 231 229 221 213 222 221 224 224 224 231 237 245
252 247 244 244 243 244 247 250 252 255 258 259 261 263 265 266 264 263 264 264 262 261 259 254 249 249 248 243 240 236 242 240 241 250 245 222 225 234 233 221 224 226 230 228 234 241 247
243 243 241 241 244 244 245 248 251 254 257 259 260 261 263 264 263 261 262 261 261 257 257 255 245 244 239 238 231 229 230 237 232 234 238 240 237 236 231 236 231 229 226 223 227 239 244
240 234 235 237 241 248 248 248 251 254 258 259 260 261 260 261 261 262 262 263 262 257 251 252 245 240 236 232 232 224 228 229 231 231 229 233 232 230 236 240 247 245 241 240 234 236 241
244 232 230 233 236 241 244 246 250 254 257 258 259 260 260 261 261 261 260 259 258 250 245 246 242 239 234 230 231 229 223 227 228 229 234 229 233 234 231 238 241 246 250 250 252 252 253
248 242 238 239 242 245 247 249 252 255 257 258 260 262 260 256 255 252 251 252 251 245 238 240 238 236 234 225 228 232 230 229 230 231 233 235 239 235 232 234 235 238 244 247 248 251 254
253 244 244 245 246 248 250 252 253 255 256 258 258 256 252 247 243 240 234 246 246 234 229 232 231 228 230 225 226 227 231 235 231 232 235 238 240 241 244 238 239 241 243 246 249 253 256
262 260 259 257 253 251 247 244 246 249 253 261 260 247 242 239 234 229 228 238 233 223 217 216 217 220 224 225 224 226 233 236 238 236 237 240 243 245 245 246 249 244 245 246 250 254 256
306 298 285 268 257 251 248 248 248 251 253 253 251 248 235 234 229 223 224 228 220 202 197 198 208 214 216 223 226 224 225 231 235 235 239 245 246 245 250 249 248 251 252 250 250 250 252
292 285 277 271 268 266 253 244 245 247 247 248 244 246 244 226 224 224 222 219 208 197 194 198 206 215 216 217 222 227 230 231 234 234 237 241 247 249 249 251 252 255 258 252 250 253 253
301 296 283 270 263 254 253 250 241 243 244 245 245 239 242 226 217 215 214 207 201 201 202 199 209 212 218 220 220 222 227 234 235 236 234 235 243 247 253 255 258 262 259 260 253 249 248
297 292 284 267 259 254 245 246 240 235 238 240 242 237 234 220 206 211 208 202 201 193 195 204 206 208 218 222 225 225 229 228 232 232 234 236 239 244 245 246 246 249 260 248 248 243 248
290 286 273 263 255 249 242 239 234 226 230 235 238 235 229 215 200 204 199 195 197 199 211 209 214 214 214 218 223 225 228 231 232 230 237 236 236 239 240 240 243 237 245 246 248 251 249
298 289 288 273 256 243 236 234 225 216 221 225 226 218 216 209 192 193 189 187 198 212 219 222 211 206 213 219 219 227 231 227 223 222 220 224 221 225 222 220 220 228 230 237 234 233 241